| time (UTC) | temp F | wind direction | speed MPH | gust MPH | rain 1hr in | rain 24hr in | rain mn in | humidity % | barometer mb |
| 20260504222822 | 75 | 130 | 0.0 | 0.0 | 0.00 | 0.00 | 0.06 | 88 | 1007.0 |
| 20260504222322 | 76 | 140 | 1.0 | 1.0 | 0.00 | 0.00 | 0.06 | 88 | 1007.0 |
| 20260504221822 | 76 | 154 | 1.0 | 1.0 | 0.00 | 0.00 | 0.06 | 89 | 1007.0 |
| 20260504221322 | 76 | 161 | 1.0 | 1.0 | 0.00 | 0.00 | 0.06 | 90 | 1007.0 |
| 20260504220823 | 75 | 88 | 1.0 | 1.0 | 0.00 | 0.00 | 0.06 | 90 | 1007.0 |
| 20260504220322 | 75 | 128 | 0.0 | 0.0 | 0.00 | 0.00 | 0.06 | 90 | 1007.0 |
| 20260504215822 | 75 | 127 | 0.0 | 0.0 | 0.00 | 0.00 | 0.06 | 90 | 1007.0 |
| 20260504215324 | 75 | 121 | 0.0 | 0.0 | 0.00 | 0.00 | 0.06 | 90 | 1007.0 |
| 20260504214822 | 75 | 119 | 0.0 | 0.0 | 0.00 | 0.00 | 0.06 | 90 | 1007.0 |
| 20260504214323 | 75 | 147 | 1.0 | 2.0 | 0.00 | 0.00 | 0.06 | 90 | 1007.0 |
| 20260504213822 | 75 | 152 | 1.0 | 2.0 | 0.00 | 0.00 | 0.06 | 90 | 1007.0 |
| 20260504213322 | 75 | 129 | 0.0 | 0.0 | 0.00 | 0.00 | 0.06 | 91 | 1007.0 |
| 20260504212823 | 75 | 134 | 1.0 | 1.0 | 0.00 | 0.00 | 0.06 | 90 | 1007.0 |
| 20260504212322 | 75 | 119 | 0.0 | 0.0 | 0.00 | 0.00 | 0.06 | 90 | 1007.0 |
| 20260504211823 | 75 | 136 | 1.0 | 1.0 | 0.00 | 0.00 | 0.06 | 90 | 1007.0 |
| 20260504211322 | 75 | 124 | 0.0 | 0.0 | 0.07 | 0.00 | 0.06 | 89 | 1007.0 |
| 20260504210822 | 75 | 114 | 0.0 | 1.0 | 0.07 | 0.00 | 0.06 | 90 | 1007.0 |
| 20260504210322 | 75 | 129 | 0.0 | 1.0 | 0.00 | 0.00 | 0.05 | 90 | 1007.0 |
| 20260504205822 | 75 | 354 | 1.0 | 2.0 | 0.05 | 0.00 | 0.05 | 90 | 1008.0 |
| 20260504205322 | 75 | 287 | 2.0 | 2.0 | 0.12 | 0.00 | 0.05 | 90 | 1008.0 |
| 20260504204824 | 75 | 149 | 3.0 | 3.0 | 0.07 | 0.00 | 0.04 | 90 | 1008.0 |
| 20260504204322 | 75 | 116 | 0.0 | 1.0 | 0.07 | 0.00 | 0.04 | 90 | 1008.0 |
| 20260504203822 | 75 | 176 | 1.0 | 2.0 | 0.00 | 0.00 | 0.03 | 90 | 1008.0 |
| 20260504203322 | 75 | 279 | 2.0 | 2.0 | 0.05 | 0.00 | 0.03 | 89 | 1008.0 |
| 20260504202822 | 75 | 178 | 1.0 | 2.0 | 0.05 | 0.00 | 0.03 | 89 | 1008.0 |
| 20260504202324 | 75 | 135 | 1.0 | 1.0 | 0.00 | 0.00 | 0.02 | 89 | 1009.0 |
| 20260504201822 | 75 | 173 | 1.0 | 1.0 | 0.00 | 0.00 | 0.02 | 89 | 1008.0 |
| 20260504201322 | 75 | 186 | 1.0 | 2.0 | 0.00 | 0.00 | 0.02 | 89 | 1008.0 |
| 20260504200825 | 75 | 105 | 1.0 | 2.0 | 0.00 | 0.00 | 0.02 | 88 | 1008.0 |
| 20260504200322 | 75 | 130 | 1.0 | 1.0 | 0.00 | 0.00 | 0.02 | 88 | 1008.0 |
| 20260504195822 | 75 | 107 | 1.0 | 1.0 | 0.00 | 0.00 | 0.02 | 88 | 1008.0 |
| 20260504195323 | 75 | 72 | 1.0 | 2.0 | 0.00 | 0.00 | 0.02 | 88 | 1008.0 |
| 20260504194822 | 75 | 159 | 1.0 | 2.0 | 0.00 | 0.00 | 0.02 | 88 | 1008.0 |
| 20260504194324 | 75 | 122 | 1.0 | 1.0 | 0.07 | 0.00 | 0.02 | 88 | 1009.0 |
| 20260504193824 | 75 | 128 | 1.0 | 1.0 | 0.07 | 0.00 | 0.02 | 87 | 1009.0 |
| 20260504193323 | 75 | 139 | 1.0 | 2.0 | 0.00 | 0.00 | 0.01 | 87 | 1009.0 |
| 20260504192822 | 75 | 358 | 2.0 | 2.0 | 0.00 | 0.00 | 0.01 | 86 | 1009.0 |
| 20260504192323 | 75 | 33 | 1.0 | 2.0 | 0.00 | 0.00 | 0.01 | 86 | 1009.0 |
| 20260504191824 | 75 | 118 | 1.0 | 1.0 | 0.00 | 0.00 | 0.01 | 86 | 1009.0 |
| 20260504190835 | 76 | 136 | 2.0 | 2.0 | 0.05 | 0.00 | 0.01 | 85 | 1009.0 |
| 20260504190322 | 77 | 163 | 1.0 | 1.0 | 0.05 | 0.00 | 0.01 | 83 | 1009.0 |
| 20260504185824 | 77 | 119 | 1.0 | 2.0 | 0.00 | 0.00 | 0.00 | 82 | 1009.0 |
| 20260504185322 | 76 | 92 | 2.0 | 2.0 | 0.00 | 0.00 | 0.00 | 83 | 1009.0 |
| 20260504184822 | 76 | 109 | 1.0 | 1.0 | 0.00 | 0.00 | 0.00 | 82 | 1009.0 |
| 20260504184322 | 77 | 49 | 3.0 | 3.0 | 0.00 | 0.00 | 0.00 | 81 | 1009.0 |
| 20260504183822 | 77 | 261 | 5.0 | 6.0 | 0.00 | 0.00 | 0.00 | 80 | 1010.0 |
| 20260504183323 | 78 | 338 | 5.0 | 7.0 | 0.00 | 0.00 | 0.00 | 80 | 1010.0 |
| 20260504182822 | 78 | 307 | 3.0 | 5.0 | 0.00 | 0.00 | 0.00 | 81 | 1009.0 |
| 20260504182331 | 78 | 352 | 4.0 | 5.0 | 0.00 | 0.00 | 0.00 | 81 | 1009.0 |
| 20260504181823 | 77 | 54 | 2.0 | 3.0 | 0.00 | 0.00 | 0.00 | 82 | 1009.0 |
| 20260504181323 | 77 | 354 | 2.0 | 3.0 | 0.00 | 0.00 | 0.00 | 81 | 1009.0 |
| 20260504180825 | 77 | 56 | 3.0 | 3.0 | 0.00 | 0.00 | 0.00 | 81 | 1009.0 |
| 20260504180324 | 77 | 340 | 4.0 | 6.0 | 0.00 | 0.00 | 0.00 | 82 | 1009.0 |
| 20260504175822 | 76 | 3 | 6.0 | 8.0 | 0.00 | 0.00 | 0.00 | 83 | 1009.0 |
| 20260504175324 | 76 | 41 | 3.0 | 3.0 | 0.00 | 0.00 | 0.00 | 85 | 1009.0 |
| 20260504174823 | 76 | 16 | 3.0 | 3.0 | 0.00 | 0.00 | 0.00 | 85 | 1009.0 |
| 20260504174322 | 77 | 352 | 4.0 | 6.0 | 0.00 | 0.00 | 0.00 | 83 | 1009.0 |
| 20260504173822 | 77 | 283 | 3.0 | 3.0 | 0.00 | 0.00 | 0.00 | 82 | 1009.0 |
| 20260504173322 | 77 | 96 | 2.0 | 3.0 | 0.00 | 0.00 | 0.00 | 81 | 1009.0 |
| 20260504172823 | 78 | 245 | 5.0 | 7.0 | 0.00 | 0.00 | 0.00 | 78 | 1009.0 |
| 20260504172325 | 78 | 330 | 7.0 | 9.0 | 0.00 | 0.00 | 0.00 | 76 | 1009.0 |
| 20260504171823 | 78 | 3 | 4.0 | 5.0 | 0.00 | 0.00 | 0.00 | 78 | 1009.0 |
| 20260504171322 | 80 | 14 | 5.0 | 6.0 | 0.00 | 0.00 | 0.00 | 74 | 1009.0 |
| 20260504170824 | 80 | 171 | 3.0 | 5.0 | 0.00 | 0.00 | 0.00 | 74 | 1009.0 |
| 20260504170322 | 80 | 315 | 5.0 | 7.0 | 0.00 | 0.00 | 0.00 | 75 | 1009.0 |
| 20260504160322 | 87 | 136 | 1.0 | 1.0 | 0.00 | 0.00 | 0.00 | 78 | 1008.0 |
| 20260504150822 | 88 | 159 | 1.0 | 3.0 | 0.00 | 0.00 | 0.00 | 77 | 1007.0 |
| 20260504150322 | 88 | 137 | 2.0 | 2.0 | 0.00 | 0.00 | 0.00 | 77 | 1007.0 |
| 20260504141324 | 89 | 125 | 2.0 | 2.0 | 0.00 | 0.00 | 0.00 | 72 | 1007.0 |
| 20260504140825 | 89 | 138 | 1.0 | 2.0 | 0.00 | 0.00 | 0.00 | 71 | 1006.0 |
| 20260504140324 | 89 | 126 | 3.0 | 5.0 | 0.00 | 0.00 | 0.00 | 71 | 1006.0 |
| 20260504130325 | 93 | 112 | 1.0 | 1.0 | 0.00 | 0.00 | 0.00 | 61 | 1005.0 |
| 20260504110323 | 97 | 90 | 4.0 | 6.0 | 0.00 | 0.00 | 0.00 | 57 | 1003.0 |
| 20260504100322 | 98 | 133 | 1.0 | 1.0 | 0.00 | 0.00 | 0.00 | 52 | 1004.0 |
| 20260504081824 | 101 | 44 | 2.0 | 2.0 | 0.00 | 0.00 | 0.00 | 49 | 1006.0 |
| 20260504081322 | 100 | 127 | 1.0 | 1.0 | 0.00 | 0.00 | 0.00 | 50 | 1006.0 |
| 20260504080822 | 100 | 68 | 1.0 | 1.0 | 0.00 | 0.00 | 0.00 | 49 | 1006.0 |
| 20260504080323 | 99 | 89 | 1.0 | 1.0 | 0.00 | 0.00 | 0.00 | 50 | 1006.0 |
| 20260504070324 | 98 | 220 | 2.0 | 2.0 | 0.00 | 0.00 | 0.00 | 52 | 1007.0 |
| 20260504050322 | 94 | 151 | 2.0 | 3.0 | 0.00 | 0.00 | 0.00 | 55 | 1009.0 |
| 20260504045822 | 93 | 135 | 1.0 | 1.0 | 0.00 | 0.00 | 0.00 | 54 | 1009.0 |
| 20260504045322 | 92 | 65 | 1.0 | 2.0 | 0.00 | 0.00 | 0.00 | 55 | 1009.0 |
| 20260504044822 | 93 | 119 | 1.0 | 1.0 | 0.00 | 0.00 | 0.00 | 54 | 1009.0 |
| 20260504044322 | 93 | 121 | 1.0 | 1.0 | 0.00 | 0.00 | 0.00 | 55 | 1009.0 |
| 20260504043822 | 92 | 94 | 1.0 | 1.0 | 0.00 | 0.00 | 0.00 | 56 | 1009.0 |
| 20260504043322 | 92 | 139 | 1.0 | 1.0 | 0.00 | 0.00 | 0.00 | 55 | 1009.0 |
| 20260504042822 | 92 | 69 | 2.0 | 2.0 | 0.00 | 0.00 | 0.00 | 56 | 1009.0 |
| 20260504042322 | 91 | 329 | 2.0 | 2.0 | 0.00 | 0.00 | 0.00 | 56 | 1009.0 |
| 20260504041822 | 91 | 30 | 3.0 | 3.0 | 0.00 | 0.00 | 0.00 | 57 | 1009.0 |
| 20260504041322 | 91 | 136 | 1.0 | 1.0 | 0.00 | 0.00 | 0.00 | 57 | 1009.0 |
| 20260504040822 | 91 | 269 | 1.0 | 2.0 | 0.00 | 0.00 | 0.00 | 58 | 1009.0 |
| 20260504040323 | 91 | 54 | 1.0 | 2.0 | 0.00 | 0.00 | 0.00 | 57 | 1009.0 |
| 20260504035823 | 90 | 103 | 1.0 | 1.0 | 0.00 | 0.00 | 0.00 | 60 | 1009.0 |
| 20260504035322 | 90 | 68 | 2.0 | 3.0 | 0.00 | 0.00 | 0.00 | 59 | 1009.0 |
| 20260504034822 | 89 | 133 | 1.0 | 1.0 | 0.00 | 0.00 | 0.00 | 61 | 1009.0 |
| 20260504034322 | 89 | 125 | 2.0 | 3.0 | 0.00 | 0.00 | 0.00 | 60 | 1009.0 |
| 20260504033822 | 89 | 140 | 0.0 | 0.0 | 0.00 | 0.00 | 0.00 | 60 | 1009.0 |
| 20260504033323 | 89 | 149 | 2.0 | 2.0 | 0.00 | 0.00 | 0.00 | 61 | 1009.0 |
| 20260504032823 | 88 | 123 | 1.0 | 1.0 | 0.00 | 0.00 | 0.00 | 63 | 1009.0 |
| 20260504032323 | 88 | 192 | 2.0 | 3.0 | 0.00 | 0.00 | 0.00 | 62 | 1009.0 |
| 20260504031822 | 88 | 193 | 3.0 | 3.0 | 0.00 | 0.00 | 0.00 | 62 | 1009.0 |
| 20260504031322 | 87 | 88 | 1.0 | 2.0 | 0.00 | 0.00 | 0.00 | 63 | 1009.0 |
| 20260504030823 | 87 | 123 | 0.0 | 0.0 | 0.00 | 0.00 | 0.00 | 63 | 1009.0 |
| 20260504030323 | 87 | 93 | 1.0 | 1.0 | 0.00 | 0.00 | 0.00 | 63 | 1009.0 |
| 20260504025823 | 87 | 126 | 0.0 | 1.0 | 0.00 | 0.00 | 0.00 | 63 | 1009.0 |
| 20260504025322 | 86 | 125 | 0.0 | 0.0 | 0.00 | 0.00 | 0.00 | 64 | 1009.0 |
| 20260504024823 | 86 | 125 | 1.0 | 1.0 | 0.00 | 0.00 | 0.00 | 64 | 1009.0 |
| 20260504024322 | 85 | 117 | 0.0 | 1.0 | 0.00 | 0.00 | 0.00 | 65 | 1008.0 |
| 20260504023822 | 85 | 166 | 1.0 | 1.0 | 0.00 | 0.00 | 0.00 | 65 | 1009.0 |
| 20260504023322 | 84 | 31 | 1.0 | 1.0 | 0.00 | 0.00 | 0.00 | 66 | 1008.0 |
| 20260504022822 | 85 | 115 | 1.0 | 2.0 | 0.00 | 0.00 | 0.00 | 67 | 1008.0 |
| 20260504022322 | 85 | 209 | 2.0 | 2.0 | 0.00 | 0.00 | 0.00 | 66 | 1008.0 |
| 20260504021823 | 85 | 126 | 0.0 | 0.0 | 0.00 | 0.00 | 0.00 | 66 | 1008.0 |
| 20260504021322 | 84 | 127 | 0.0 | 0.0 | 0.00 | 0.00 | 0.00 | 68 | 1008.0 |
| 20260504020822 | 83 | 136 | 1.0 | 2.0 | 0.00 | 0.00 | 0.00 | 69 | 1008.0 |
| 20260504020323 | 83 | 126 | 0.0 | 1.0 | 0.00 | 0.00 | 0.00 | 68 | 1008.0 |
| 20260504015822 | 83 | 121 | 0.0 | 0.0 | 0.00 | 0.00 | 0.00 | 68 | 1008.0 |
| 20260504015322 | 83 | 130 | 1.0 | 1.0 | 0.00 | 0.00 | 0.00 | 68 | 1008.0 |
| 20260504014822 | 82 | 124 | 0.0 | 0.0 | 0.00 | 0.00 | 0.00 | 69 | 1008.0 |
| 20260504014323 | 82 | 133 | 0.0 | 0.0 | 0.00 | 0.00 | 0.00 | 70 | 1008.0 |
| 20260504013823 | 82 | 125 | 0.0 | 1.0 | 0.00 | 0.00 | 0.00 | 72 | 1007.0 |
| 20260504013323 | 81 | 126 | 0.0 | 0.0 | 0.00 | 0.00 | 0.00 | 74 | 1007.0 |
| 20260504012822 | 81 | 119 | 0.0 | 0.0 | 0.00 | 0.00 | 0.00 | 74 | 1008.0 |
| 20260504012322 | 81 | 119 | 0.0 | 0.0 | 0.00 | 0.00 | 0.00 | 75 | 1007.0 |
| 20260504011822 | 80 | 114 | 0.0 | 0.0 | 0.00 | 0.00 | 0.00 | 76 | 1007.0 |
| 20260504011322 | 80 | 108 | 0.0 | 1.0 | 0.00 | 0.00 | 0.00 | 77 | 1007.0 |
| 20260504010824 | 80 | 119 | 0.0 | 0.0 | 0.00 | 0.00 | 0.00 | 78 | 1007.0 |
| 20260504010323 | 79 | 105 | 0.0 | 0.0 | 0.00 | 0.00 | 0.00 | 79 | 1007.0 |
| 20260504005823 | 79 | 106 | 1.0 | 1.0 | 0.00 | 0.00 | 0.00 | 79 | 1007.0 |
| 20260504005324 | 78 | 117 | 0.0 | 0.0 | 0.00 | 0.00 | 0.00 | 80 | 1007.0 |
| 20260504004822 | 78 | 123 | 0.0 | 0.0 | 0.00 | 0.00 | 0.00 | 80 | 1007.0 |
| 20260504004322 | 78 | 123 | 0.0 | 0.0 | 0.00 | 0.00 | 0.00 | 80 | 1007.0 |
| 20260504003822 | 79 | 125 | 0.0 | 1.0 | 0.00 | 0.00 | 0.00 | 79 | 1007.0 |
| 20260504003323 | 79 | 132 | 1.0 | 1.0 | 0.00 | 0.00 | 0.00 | 78 | 1007.0 |
| 20260504002822 | 79 | 109 | 1.0 | 1.0 | 0.00 | 0.00 | 0.00 | 76 | 1007.0 |
| 20260504002323 | 79 | 119 | 0.0 | 0.0 | 0.00 | 0.00 | 0.00 | 76 | 1007.0 |
| 20260504001823 | 80 | 117 | 0.0 | 1.0 | 0.00 | 0.00 | 0.00 | 75 | 1007.0 |
| 20260504001322 | 80 | 95 | 0.0 | 0.0 | 0.00 | 0.00 | 0.00 | 75 | 1007.0 |
| 20260504000823 | 80 | 122 | 0.0 | 0.0 | 0.00 | 0.00 | 0.00 | 73 | 1007.0 |
| 20260504000322 | 79 | 137 | 0.0 | 1.0 | 0.00 | 0.00 | 0.00 | 74 | 1007.0 |
| 20260503235822 | 79 | 121 | 1.0 | 1.0 | 0.00 | 0.00 | 0.00 | 75 | 1007.0 |
| 20260503235322 | 79 | 125 | 0.0 | 0.0 | 0.00 | 0.00 | 0.00 | 74 | 1007.0 |
| 20260503234822 | 79 | 123 | 0.0 | 0.0 | 0.00 | 0.00 | 0.00 | 74 | 1007.0 |
| 20260503234325 | 79 | 132 | 0.0 | 1.0 | 0.00 | 0.00 | 0.00 | 74 | 1007.0 |
| 20260503233822 | 80 | 131 | 0.0 | 0.0 | 0.00 | 0.00 | 0.00 | 74 | 1007.0 |
| 20260503233322 | 80 | 125 | 0.0 | 1.0 | 0.00 | 0.00 | 0.00 | 72 | 1006.0 |
| 20260503232822 | 80 | 131 | 1.0 | 1.0 | 0.00 | 0.00 | 0.00 | 72 | 1006.0 |
| 20260503232323 | 80 | 117 | 0.0 | 0.0 | 0.00 | 0.00 | 0.00 | 72 | 1006.0 |
| 20260503231823 | 80 | 137 | 0.0 | 0.0 | 0.00 | 0.00 | 0.00 | 72 | 1006.0 |
| 20260503231323 | 80 | 116 | 1.0 | 1.0 | 0.00 | 0.00 | 0.00 | 72 | 1006.0 |
| 20260503230822 | 80 | 116 | 0.0 | 0.0 | 0.00 | 0.00 | 0.00 | 73 | 1006.0 |
| 20260503230322 | 80 | 127 | 0.0 | 0.0 | 0.00 | 0.00 | 0.00 | 73 | 1006.0 |
| 20260503225822 | 80 | 122 | 0.0 | 0.0 | 0.00 | 0.00 | 0.00 | 73 | 1006.0 |
| 20260503225323 | 80 | 118 | 0.0 | 0.0 | 0.00 | 0.00 | 0.00 | 74 | 1006.0 |
| 20260503224823 | 80 | 144 | 1.0 | 1.0 | 0.00 | 0.00 | 0.00 | 73 | 1006.0 |
| 20260503224322 | 80 | 136 | 1.0 | 2.0 | 0.00 | 0.00 | 0.00 | 74 | 1006.0 |
| 20260503223822 | 80 | 79 | 1.0 | 2.0 | 0.00 | 0.00 | 0.00 | 74 | 1005.0 |
| 20260503223323 | 80 | 82 | 2.0 | 2.0 | 0.00 | 0.00 | 0.00 | 74 | 1005.0 |